K0JSC-13 Weather Reports


Display with metric or nautical units.
time (UTC)temp
F
wind
direction
speed
MPH
gust
MPH
rain 1hr
in
rain 24hr
in
rain mn
in
humidity
%
barometer
mb
20260502181803 65 237 4.0 8.0 0.00 0.00 0.00 23 1001.4
20260502180904 65 268 4.0 10.0 0.00 0.00 0.00 22 1001.7
20260502163603 61 278 5.0 12.0 0.00 0.00 0.00 28 1003.1
20260502162703 60 307 5.0 11.0 0.00 0.00 0.00 31 1003.2
20260502161803 60 299 5.0 10.0 0.00 0.00 0.00 32 1003.1
20260502160903 59 301 6.0 11.0 0.00 0.00 0.00 36 1003.3
20260502151803 56 288 5.0 12.0 0.00 0.00 0.00 44 1003.9
20260502150903 55 282 6.0 13.0 0.00 0.00 0.00 44 1004.0
20260502122703 41 315 6.0 12.0 0.00 0.00 0.00 66 1004.3
20260502121803 41 317 5.0 9.0 0.00 0.00 0.00 67 1004.2
20260502120904 41 315 5.0 9.0 0.00 0.00 0.00 66 1004.2
20260502115403 41 320 5.0 9.0 0.00 0.00 0.00 67 1004.1
20260502114503 41 315 7.0 12.0 0.00 0.00 0.00 67 1004.1
20260502113603 42 315 7.0 12.0 0.00 0.00 0.00 66 1004.1
20260502112703 42 316 7.0 12.0 0.00 0.00 0.00 66 1004.1
20260502111803 41 323 6.0 11.0 0.00 0.00 0.00 67 1004.0
20260502110904 42 331 5.0 10.0 0.00 0.00 0.00 67 1004.0
20260502110004 42 323 6.0 12.0 0.00 0.00 0.00 66 1003.9
20260502105618 42 321 7.0 12.0 0.00 0.00 0.00 65 1003.9
20260502104503 42 314 7.0 11.0 0.00 0.00 0.00 65 1003.9
20260502103603 43 310 8.0 12.0 0.00 0.00 0.00 64 1003.9
20260502102703 43 310 8.0 14.0 0.00 0.00 0.00 64 1004.0
20260502101803 43 313 7.0 12.0 0.00 0.00 0.00 64 1003.8
20260502101117 43 314 8.0 14.0 0.00 0.00 0.00 63 1003.8
20260502090903 44 314 8.0 14.0 0.00 0.00 0.00 63 1003.6
20260502071117 45 85 4.0 9.0 0.00 0.03 0.00 64 1003.6
20260502070003 46 86 5.0 11.0 0.00 0.03 0.00 64 1003.6
20260502065403 45 86 5.0 11.0 0.00 0.03 0.00 65 1003.6
20260502064503 45 86 7.0 10.0 0.00 0.04 0.00 66 1003.5
20260502063604 45 84 6.0 11.0 0.00 0.04 0.00 68 1003.6
20260502062703 44 83 3.0 8.0 0.00 0.04 0.00 69 1003.5
20260502062018 44 83 2.0 6.0 0.00 0.05 0.00 70 1003.4
20260502060903 44 79 3.0 8.0 0.00 0.05 0.00 70 1003.4
20260502060218 44 82 1.0 5.0 0.00 0.05 0.00 71 1003.3
20260502055403 44 89 0.0 2.0 0.00 0.05 0.05 71 1003.3
20260502054503 45 84 1.0 4.0 0.00 0.05 0.05 70 1003.1
20260502053604 45 84 2.0 7.0 0.00 0.06 0.05 69 1003.1
20260502052703 45 85 0.0 4.0 0.00 0.06 0.05 69 1003.1
20260502051803 44 82 1.0 4.0 0.00 0.06 0.05 71 1003.0
20260502051117 44 83 2.0 4.0 0.00 0.06 0.05 72 1003.1
20260502050003 44 75 2.0 4.0 0.00 0.07 0.05 72 1003.1
20260502045403 45 72 1.0 3.0 0.00 0.08 0.05 72 1003.0
20260502044504 45 75 1.0 5.0 0.00 0.08 0.05 71 1003.0
20260502043603 45 313 3.0 7.0 0.00 0.09 0.05 69 1003.2
20260502042918 46 316 4.0 8.0 0.00 0.10 0.05 69 1003.1
20260502041803 46 317 4.0 9.0 0.00 0.10 0.05 70 1003.0
20260502040904 45 357 2.0 5.0 0.00 0.11 0.05 70 1003.1
20260502040004 45 17 1.0 4.0 0.00 0.11 0.05 69 1003.0
20260502035617 45 320 0.0 2.0 0.00 0.11 0.05 69 1003.0
20260502034503 46 318 1.0 3.0 0.00 0.12 0.05 68 1003.0
20260502033603 47 314 0.0 3.0 0.00 0.12 0.05 67 1003.0
20260502032703 48 0 0.0 0.0 0.00 0.13 0.05 64 1002.8
20260502031804 48 0 0.0 0.0 0.00 0.14 0.05 63 1002.8
20260502030903 49 307 0.0 2.0 0.00 0.15 0.05 61 1002.7
20260502030003 50 189 1.0 4.0 0.00 0.16 0.05 60 1002.6
20260502025403 50 104 0.0 2.0 0.00 0.17 0.05 57 1002.5
20260502024503 50 104 0.0 2.0 0.00 0.18 0.05 57 1002.3
20260502023603 52 104 0.0 2.0 0.00 0.19 0.05 53 1002.2
20260502022703 53 106 1.0 4.0 0.00 0.21 0.05 50 1002.1
20260502021803 54 115 1.0 4.0 0.00 0.23 0.05 48 1001.9
20260502020903 54 128 2.0 4.0 0.00 0.24 0.05 46 1001.8
20260502020004 55 118 3.0 6.0 0.00 0.25 0.05 45 1001.7
20260502015403 55 109 4.0 7.0 0.00 0.26 0.05 43 1001.7
20260502014503 55 112 4.0 8.0 0.00 0.26 0.05 42 1001.6
20260502013603 56 111 5.0 9.0 0.00 0.27 0.05 41 1001.5
20260502012703 56 120 5.0 12.0 0.00 0.28 0.05 40 1001.4
20260502012018 56 118 5.0 12.0 0.00 0.28 0.05 40 1001.3
20260502010903 57 112 4.0 8.0 0.00 0.28 0.05 40 1001.1
20260502010003 57 103 4.0 8.0 0.00 0.28 0.05 39 1001.0
20260502005404 57 113 4.0 10.0 0.00 0.28 0.05 40 1000.9
20260502004503 58 121 5.0 9.0 0.00 0.28 0.05 38 1000.9
20260502003817 58 121 5.0 9.0 0.00 0.28 0.05 38 1001.0
20260502002918 58 101 4.0 9.0 0.00 0.28 0.05 39 1001.0
20260502002018 58 100 5.0 9.0 0.00 0.28 0.05 38 1000.9
20260502000903 58 99 6.0 10.0 0.00 0.32 0.05 40 1000.9
20260502000003 57 79 6.0 10.0 0.00 0.32 0.05 40 1001.0
20260501235403 58 75 6.0 11.0 0.00 0.33 0.05 40 1001.1
20260501234504 58 77 6.0 12.0 0.00 0.34 0.05 41 1001.1
20260501233604 58 76 8.0 13.0 0.00 0.34 0.05 41 1001.1
20260501232703 57 84 7.0 12.0 0.00 0.34 0.05 43 1001.1
20260501231803 57 79 6.0 13.0 0.00 0.34 0.05 43 1001.2
20260501230903 57 63 8.0 15.0 0.00 0.34 0.05 44 1001.3
20260501230003 57 71 9.0 15.0 0.00 0.34 0.05 45 1001.3
20260501225618 57 74 9.0 14.0 0.00 0.34 0.05 47 1001.2
20260501224504 57 83 9.0 14.0 0.00 0.34 0.05 45 1001.2
20260501223603 57 70 9.0 14.0 0.00 0.34 0.05 47 1001.2
20260501222918 56 55 11.0 17.0 0.00 0.34 0.05 50 1001.3
20260501221803 57 53 11.0 20.0 0.00 0.34 0.05 47 1001.5
20260501220903 58 65 8.0 18.0 0.00 0.34 0.05 46 1001.5
20260501215403 58 110 3.0 8.0 0.00 0.34 0.05 36 1001.7
20260501214503 58 216 3.0 7.0 0.00 0.34 0.05 39 1001.9
20260501213603 58 152 3.0 8.0 0.00 0.34 0.05 35 1002.0
20260501212703 58 139 4.0 9.0 0.00 0.34 0.05 36 1002.1
20260501211804 58 254 1.0 5.0 0.00 0.34 0.05 38 1002.3
20260501210903 57 263 2.0 8.0 0.00 0.34 0.05 36 1002.6
20260501210003 57 163 2.0 5.0 0.00 0.34 0.05 42 1002.7
20260501205403 56 118 5.0 10.0 0.00 0.34 0.05 39 1002.8
20260501204503 57 75 4.0 9.0 0.00 0.34 0.05 44 1002.8
20260501203603 56 106 5.0 11.0 0.00 0.34 0.05 43 1002.9
20260501202917 56 134 6.0 10.0 0.00 0.34 0.05 42 1003.0
20260501201804 56 71 4.0 9.0 0.00 0.34 0.05 45 1003.2
20260501200903 55 64 4.0 10.0 0.00 0.34 0.05 47 1003.3
20260501200004 56 69 4.0 9.0 0.00 0.34 0.05 44 1003.4
20260501195403 56 53 6.0 10.0 0.00 0.34 0.05 44 1003.5
20260501194503 56 103 4.0 10.0 0.00 0.34 0.05 44 1003.6
20260501193603 56 65 1.0 9.0 0.00 0.34 0.05 43 1003.7
20260501192703 56 83 6.0 9.0 0.00 0.34 0.05 43 1004.0
20260501191804 54 172 4.0 9.0 0.00 0.34 0.05 45 1004.1
20260501190903 54 130 3.0 7.0 0.00 0.34 0.05 44 1004.2
20260501190003 54 86 4.0 9.0 0.00 0.34 0.05 48 1004.3
20260501185403 53 99 2.0 9.0 0.00 0.34 0.05 48 1004.4
20260501184504 53 61 1.0 4.0 0.00 0.34 0.05 49 1004.4
20260501183603 52 100 2.0 5.0 0.00 0.34 0.05 49 1004.5
20260501182703 52 121 3.0 7.0 0.00 0.34 0.05 47 1004.7